This demonstration page uses our WeatherBlox Daily Observations layout. Learn more.

Left ArrowRight Arrow

Hourly Observations for May 12, 2017

Temp ( °F °C ) Dew Point ( °F °C ) Humidity (%) Winds ( mph kmh ) Pressure ( in mb ) Visibility ( mi km ) Precip ( " mm )
12:15 am 00:15 Cloudy 52 11 52 11 100 100 N N/A 30.03 1017 10 16 N/A
12:35 am 00:35 Cloudy 52 11 52 11 100 100 N N/A 30.03 1017 10 16 N/A
12:55 am 00:55 Cloudy 52 11 52 11 100 100 N N/A 30.03 1017 10 16 N/A
1:15 am 01:15 Cloudy 52 11 52 11 100 100 N N/A 30.03 1017 10 16 N/A
1:35 am 01:35 Cloudy 52 11 52 11 100 100 N N/A 30.00 1016 10 16 N/A
1:55 am 01:55 Cloudy 52 11 52 11 100 100 N N/A 30.03 1017 7 11 N/A
2:15 am 02:15 Cloudy 52 11 52 11 100 100 N N/A 30.03 1017 10 16 N/A
2:35 am 02:35 Cloudy 52 11 52 11 100 100 N N/A 30.00 1016 10 16 N/A
2:55 am 02:55 Cloudy 52 11 52 11 100 100 N N/A 30.03 1017 10 16 N/A
3:15 am 03:15 Cloudy 52 11 52 11 100 100 N N/A 30.03 1017 10 16 N/A
3:35 am 03:35 Cloudy 52 11 52 11 100 100 N N/A 30.00 1016 10 16 N/A
3:55 am 03:55 Cloudy 52 11 52 11 100 100 NE 3 6 30.00 1016 7 11 N/A
4:15 am 04:15 Cloudy 52 11 52 11 100 100 N N/A 30.00 1016 7 11 N/A
4:35 am 04:35 Cloudy 52 11 52 11 100 100 N N/A 30.00 1016 7 11 N/A
4:55 am 04:55 Cloudy 52 11 52 11 100 100 N N/A 30.00 1016 10 16 N/A
5:15 am 05:15 Cloudy 52 11 52 11 100 100 N N/A 30.00 1016 7 11 N/A
5:35 am 05:35 Cloudy 52 11 52 11 100 100 ENE 3 6 30.00 1016 7 11 N/A
5:55 am 05:55 Cloudy 52 11 52 11 100 100 NE 3 6 30.00 1016 7 11 N/A
6:15 am 06:15 Cloudy with Mist and Fog 52 11 52 11 100 100 N N/A 30.03 1017 5 8 N/A
6:35 am 06:35 Cloudy with Mist and Fog 52 11 52 11 100 100 NE 3 6 30.03 1017 5 8 N/A
6:55 am 06:55 Cloudy with Mist and Fog 52 11 52 11 100 100 N N/A 30.03 1017 5 8 N/A
7:15 am 07:15 Cloudy with Mist and Fog 52 11 52 11 100 100 E 3 6 30.03 1017 5 8 N/A
7:35 am 07:35 Cloudy with Mist and Fog 52 11 52 11 100 100 N N/A 30.03 1017 5 8 N/A
7:55 am 07:55 Cloudy 52 11 52 11 100 100 N N/A 30.03 1017 7 11 N/A
8:15 am 08:15 Cloudy 52 11 52 11 100 100 E 3 6 30.03 1017 7 11 N/A
8:35 am 08:35 Cloudy 52 11 52 11 100 100 N N/A 30.03 1017 10 16 N/A
8:55 am 08:55 Cloudy 52 11 52 11 100 100 ENE 5 7 30.03 1017 10 16 N/A
9:15 am 09:15 Cloudy 52 11 52 11 100 100 ENE 5 7 30.03 1017 10 16 N/A
9:35 am 09:35 Cloudy 52 11 52 11 100 100 E 3 6 30.03 1017 10 16 N/A
9:55 am 09:55 Cloudy 54 12 52 11 94 94 ENE 3 6 30.03 1017 10 16 N/A
10:15 am 10:15 Cloudy 54 12 52 11 94 94 ESE 7 11 30.03 1017 10 16 N/A
10:35 am 10:35 Cloudy 54 12 52 11 94 94 ESE 7 11 30.03 1017 10 16 N/A
10:55 am 10:55 Cloudy 54 12 52 11 94 94 ESE 7 11 30.03 1017 10 16 N/A
11:15 am 11:15 Cloudy 54 12 50 10 88 88 ESE 8 13 30.03 1017 10 16 N/A
11:35 am 11:35 Cloudy 54 12 50 10 88 88 ESE 8 13 30.03 1017 10 16 N/A
11:55 am 11:55 Cloudy 55 13 52 11 88 88 SE 7 11 30.03 1017 10 16 N/A
12:15 pm 12:15 Cloudy 55 13 52 11 88 88 E 5 7 30.03 1017 10 16 N/A
12:35 pm 12:35 Cloudy 55 13 50 10 82 82 SE 8 13 30.03 1017 10 16 N/A
12:55 pm 12:55 Cloudy 55 13 50 10 82 82 ESE 9 15 30.03 1017 10 16 N/A
1:15 pm 13:15 Cloudy 55 13 50 10 82 82 SE 6 9 30.03 1017 10 16 N/A
1:35 pm 13:35 Cloudy 57 14 50 10 77 77 ESE 8 13 30.00 1016 10 16 N/A
1:55 pm 13:55 Cloudy 57 14 50 10 77 77 SE 6 9 30.00 1016 10 16 N/A
2:15 pm 14:15 Cloudy 57 14 50 10 77 77 ESE 6 9 30.00 1016 10 16 N/A
2:35 pm 14:35 Cloudy 57 14 50 10 77 77 ESE 3 6 30.00 1016 10 16 N/A
2:55 pm 14:55 Cloudy 57 14 50 10 77 77 SE 5 7 30.00 1016 10 16 N/A
3:15 pm 15:15 Cloudy with Light Rain 57 14 50 10 77 77 ESE 5 7 30.00 1016 10 16 N/A
3:35 pm 15:35 Cloudy with Drizzle 55 13 52 11 88 88 ESE 7 11 30.00 1016 10 16 N/A
3:55 pm 15:55 Cloudy with Rain 55 13 52 11 88 88 E 6 9 30.00 1016 10 16 N/A
4:15 pm 16:15 Cloudy with Light Rain 54 12 52 11 94 94 SE 7 11 30.00 1016 10 16 N/A
4:35 pm 16:35 Cloudy with Light Rain 54 12 54 12 100 100 SE 5 7 29.97 1015 10 16 N/A
4:55 pm 16:55 Cloudy with Drizzle 55 13 54 12 94 94 SSE 6 9 29.97 1015 10 16 N/A
5:15 pm 17:15 Cloudy with Drizzle 55 13 54 12 94 94 SE 6 9 29.97 1015 7 11 N/A
5:35 pm 17:35 Cloudy with Light Rain 54 12 54 12 100 100 SE 5 7 30.00 1016 7 11 0.01 0.25
5:55 pm 17:55 Cloudy with Drizzle 54 12 54 12 100 100 ESE 5 7 30.00 1016 10 16 0.01 0.25
6:15 pm 18:15 Cloudy with Drizzle 54 12 54 12 100 100 E 5 7 30.00 1016 10 16 0.01 0.25
6:35 pm 18:35 Cloudy 54 12 54 12 100 100 ESE 6 9 29.97 1015 10 16 0.01 0.25
6:55 pm 18:55 Cloudy 54 12 54 12 100 100 ESE 5 7 29.97 1015 10 16 0.01 0.25
7:15 pm 19:15 Cloudy with Drizzle 54 12 52 11 94 94 SE 7 11 29.97 1015 10 16 N/A
7:35 pm 19:35 Cloudy with Drizzle 52 11 52 11 100 100 SE 12 19 29.97 1015 10 16 N/A
7:55 pm 19:55 Cloudy with Drizzle 52 11 50 10 94 94 SE 7 11 29.97 1015 10 16 N/A
8:15 pm 20:15 Cloudy with Light Rain 52 11 52 11 100 100 SE 8 13 29.97 1015 10 16 N/A
8:35 pm 20:35 Cloudy with Light Rain 52 11 52 11 100 100 ESE 6 9 29.97 1015 10 16 N/A
8:55 pm 20:55 Cloudy with Light Rain 52 11 52 11 100 100 SE 7 11 29.97 1015 10 16 N/A
9:15 pm 21:15 Cloudy with Light Rain 52 11 52 11 100 100 ESE 5 7 29.97 1015 10 16 0.01 0.25
9:35 pm 21:35 Cloudy with Light Rain 52 11 52 11 100 100 ESE 6 9 29.97 1015 10 16 0.02 0.51
9:55 pm 21:55 Cloudy with Drizzle 52 11 52 11 100 100 ESE 6 9 29.97 1015 10 16 0.02 0.51
10:15 pm 22:15 Cloudy with Light Rain 50 10 50 10 100 100 E 3 6 29.97 1015 10 16 0.01 0.25
10:35 pm 22:35 Cloudy with Light Rain 50 10 50 10 100 100 E 5 7 29.97 1015 10 16 0.02 0.51
10:55 pm 22:55 Cloudy with Light Rain 50 10 50 10 100 100 E 5 7 29.94 1014 7 11 0.03 0.76
11:15 pm 23:15 Cloudy with Light Rain 50 10 50 10 100 100 ENE 5 7 29.97 1015 7 11 0.01 0.25
11:35 pm 23:35 Cloudy with Rain 50 10 50 10 100 100 ENE 5 7 29.97 1015 7 11 0.02 0.51
11:55 pm 23:55 Cloudy with Light Rain 50 10 50 10 100 100 E 3 6 29.94 1014 10 16 0.03 0.76

Powered by AerisWeather